User: anonymous   Login
Location: El Bakhil
(32.7726°N, 5.5387°W)
Time: 16:16:38
(UTC+00:00)
Language:

SEEDS - Orbit

View from above orbital plane
View from above orbital plane
View from above satellite
View from above satellite

Ground track
Ground track

The orbit data is extracted from the following two-line orbital elements,

1 32791U 08021J   22333.16940241  .00002526  00000-0  24363-3 0  9999
2 32791  97.6331 304.3901 0013066   8.7733 351.3713 14.93702291791779
Epoch (UTC): 29 November 2022 04:03:56
Eccentricity: 0.0013066
inclination: 97.6331°
perigee height: 577 km
apogee height: 595 km
right ascension of ascending node: 304.3901°
argument of perigee: 8.7733°
revolutions per day: 14.93702291
mean anomaly at epoch: 351.3713°
orbit number at epoch: 79177

The dashed part of the orbit path shows where the satellite is in the earth's shadow,  

DLR